CW6144 Weather Reports


Display with metric or nautical units.
time (UTC)temp
F
wind
direction
speed
MPH
gust
MPH
rain 1hr
in
rain 24hr
in
rain mn
in
humidity
%
barometer
mb
20260509113032 58 228 4.0 9.0 0.00 0.10 0.00 85 1011.6
20260509112509 58 274 5.0 10.0 0.00 0.10 0.00 85 1011.5
20260509112005 58 293 4.0 10.0 0.00 0.10 0.00 85 1011.5
20260509111512 57 257 5.0 8.0 0.00 0.10 0.00 86 1011.4
20260509111004 57 261 5.0 9.0 0.00 0.10 0.00 86 1011.5
20260509110507 57 225 6.0 9.0 0.00 0.10 0.00 87 1011.4
20260509110017 57 233 5.0 8.0 0.00 0.10 0.00 87 1011.3
20260509105509 56 238 3.0 7.0 0.00 0.10 0.00 87 1011.2
20260509105007 56 250 4.0 7.0 0.00 0.10 0.00 87 1011.2
20260509104537 56 244 4.0 6.0 0.00 0.10 0.00 87 1011.2
20260509104008 56 196 3.0 10.0 0.00 0.10 0.00 87 1011.2
20260509103506 56 265 3.0 10.0 0.00 0.10 0.00 86 1011.1
20260509103025 56 252 3.0 7.0 0.00 0.10 0.00 86 1011.1
20260509102507 56 257 2.0 6.0 0.00 0.10 0.00 86 1011.1
20260509102010 56 257 4.0 6.0 0.00 0.10 0.00 87 1011.1
20260509101533 56 255 3.0 6.0 0.00 0.10 0.00 86 1011.1
20260509101010 55 294 2.0 7.0 0.00 0.10 0.00 87 1011.1
20260509100503 55 270 3.0 7.0 0.00 0.10 0.00 87 1011.2
20260509100014 55 271 3.0 7.0 0.00 0.10 0.00 86 1011.2
20260509095505 55 246 3.0 7.0 0.00 0.10 0.00 86 1011.2
20260509095004 55 254 2.0 4.0 0.00 0.10 0.00 86 1011.3
20260509094532 55 262 2.0 4.0 0.00 0.10 0.00 86 1011.3
20260509094008 55 252 2.0 4.0 0.00 0.10 0.00 86 1011.3
20260509093507 55 245 2.0 4.0 0.00 0.10 0.00 86 1011.4
20260509093023 55 277 2.0 4.0 0.00 0.10 0.00 85 1011.5
20260509092510 55 265 2.0 4.0 0.00 0.10 0.00 85 1011.5
20260509092008 55 281 2.0 3.0 0.00 0.10 0.00 85 1011.5
20260509091536 55 265 2.0 4.0 0.00 0.10 0.00 85 1011.5
20260509091010 55 266 2.0 4.0 0.00 0.10 0.00 85 1011.6
20260509090510 55 269 2.0 6.0 0.00 0.10 0.00 84 1011.6
20260509090034 55 272 3.0 6.0 0.00 0.10 0.00 84 1011.6
20260509085509 55 277 2.0 6.0 0.00 0.10 0.00 84 1011.7
20260509085008 56 273 3.0 4.0 0.00 0.10 0.00 84 1011.7
20260509084522 56 273 2.0 5.0 0.00 0.10 0.00 84 1011.6
20260509084009 56 259 2.0 7.0 0.00 0.10 0.00 84 1011.7
20260509083502 56 288 3.0 8.0 0.00 0.10 0.00 84 1011.7
20260509083007 55 246 4.0 8.0 0.00 0.10 0.00 84 1011.7
20260509082503 56 265 3.0 8.0 0.00 0.10 0.00 84 1011.7
20260509082005 55 254 3.0 8.0 0.00 0.10 0.00 85 1011.7
20260509081506 55 244 5.0 8.0 0.00 0.10 0.00 85 1011.7
20260509081005 55 267 4.0 8.0 0.00 0.10 0.00 85 1011.7
20260509080503 55 258 4.0 8.0 0.00 0.10 0.00 85 1011.8
20260509080011 55 273 3.0 9.0 0.00 0.10 0.00 85 1011.8
20260509075503 55 263 4.0 9.0 0.00 0.10 0.00 85 1011.8
20260509075005 55 253 3.0 7.0 0.00 0.10 0.00 84 1011.8
20260509074520 55 258 4.0 7.0 0.00 0.10 0.00 84 1011.7
20260509074006 55 266 3.0 8.0 0.00 0.10 0.00 84 1011.7
20260509073506 55 261 4.0 8.0 0.00 0.10 0.00 84 1011.7
20260509073021 55 253 4.0 8.0 0.00 0.10 0.00 84 1011.7
20260509072506 55 262 4.0 8.0 0.00 0.10 0.00 84 1011.7
20260509072003 55 277 4.0 10.0 0.00 0.10 0.00 85 1011.6
20260509071504 55 275 5.0 10.0 0.00 0.10 0.00 85 1011.6
20260509071004 55 265 3.0 8.0 0.00 0.10 0.00 85 1011.7
20260509070503 55 275 3.0 7.0 0.00 0.10 0.00 85 1011.8
20260509070012 55 289 3.0 7.0 0.00 0.10 0.00 85 1011.7
20260509065502 54 292 3.0 7.0 0.00 0.10 0.00 86 1011.8
20260509065002 54 261 3.0 7.0 0.00 0.10 0.00 86 1011.7
20260509064513 54 263 2.0 6.0 0.00 0.10 0.00 86 1011.7
20260509064008 54 249 2.0 6.0 0.00 0.10 0.00 86 1011.7
20260509063505 54 275 2.0 6.0 0.00 0.10 0.00 86 1011.7
20260509063030 54 259 2.0 4.0 0.00 0.10 0.00 86 1011.7
20260509062508 55 287 2.0 6.0 0.00 0.10 0.00 85 1011.7
20260509062010 55 263 2.0 6.0 0.00 0.10 0.00 85 1011.7
20260509061523 55 271 3.0 7.0 0.00 0.10 0.00 85 1011.8
20260509061012 55 265 2.0 7.0 0.00 0.10 0.00 85 1011.8
20260509060503 55 285 3.0 7.0 0.00 0.10 0.00 84 1011.9
20260509060007 55 284 2.0 6.0 0.00 0.10 0.00 84 1012.0
20260509055503 56 288 3.0 9.0 0.00 0.10 0.00 84 1011.9
20260509055002 56 275 4.0 12.0 0.00 0.10 0.00 83 1012.0
20260509054511 56 309 5.0 12.0 0.00 0.10 0.00 83 1012.0
20260509054006 56 294 4.0 9.0 0.00 0.10 0.00 82 1011.9
20260509053507 56 318 3.0 8.0 0.00 0.10 0.00 81 1011.9
20260509053016 57 337 4.0 8.0 0.00 0.10 0.00 80 1012.0
20260509052507 57 305 2.0 6.0 0.00 0.10 0.00 79 1011.9
20260509052007 57 315 3.0 8.0 0.00 0.10 0.00 79 1011.9
20260509051519 57 352 2.0 8.0 0.00 0.10 0.00 79 1011.8
20260509051006 57 229 4.0 7.0 0.00 0.10 0.00 79 1011.6
20260509050508 57 166 3.0 9.0 0.00 0.10 0.00 79 1011.6
20260509050026 57 205 4.0 10.0 0.00 0.10 0.00 80 1011.6
20260509045507 57 214 4.0 11.0 0.00 0.10 0.10 80 1011.6
20260509045003 57 236 6.0 11.0 0.00 0.10 0.10 81 1011.5
20260509044508 57 234 3.0 10.0 0.00 0.10 0.10 82 1011.4
20260509044007 57 219 6.0 10.0 0.00 0.10 0.10 82 1011.5
20260509043508 56 184 5.0 9.0 0.00 0.10 0.10 83 1011.4
20260509043013 56 219 2.0 8.0 0.00 0.10 0.10 84 1011.5
20260509042506 56 242 4.0 8.0 0.00 0.10 0.10 84 1011.4
20260509042011 56 232 4.0 8.0 0.00 0.10 0.10 85 1011.4
20260509041531 56 212 4.0 8.0 0.00 0.10 0.10 84 1011.3
20260509041009 57 190 2.0 8.0 0.00 0.10 0.10 84 1011.2
20260509040511 57 204 4.0 11.0 0.00 0.10 0.10 84 1011.2
20260509040023 57 182 5.0 14.0 0.00 0.10 0.10 83 1011.1
20260509035513 57 204 6.0 14.0 0.00 0.10 0.10 83 1011.1
20260509035015 57 190 5.0 16.0 0.00 0.10 0.10 82 1011.1
20260509034525 57 171 6.0 16.0 0.00 0.10 0.10 82 1011.0
20260509034010 56 207 6.0 11.0 0.00 0.10 0.10 83 1010.8
20260509033503 56 232 5.0 11.0 0.01 0.10 0.10 83 1010.7
20260509033010 56 227 3.0 8.0 0.02 0.10 0.10 84 1010.8
20260509032507 56 188 4.0 8.0 0.03 0.10 0.10 84 1010.7
20260509032005 56 167 3.0 10.0 0.04 0.10 0.10 84 1010.5
20260509031521 56 238 5.0 10.0 0.05 0.10 0.10 83 1010.6
20260509031010 56 235 4.0 11.0 0.07 0.10 0.10 83 1010.4
20260509030511 56 162 5.0 11.0 0.09 0.10 0.10 82 1010.3
20260509030025 56 190 6.0 14.0 0.09 0.10 0.10 82 1010.4
20260509025507 57 163 6.0 15.0 0.09 0.10 0.10 82 1010.4
20260509025014 57 206 7.0 15.0 0.09 0.10 0.10 81 1010.3
20260509024523 57 198 7.0 14.0 0.09 0.10 0.10 79 1010.2
20260509024011 57 199 7.0 14.0 0.10 0.10 0.10 78 1009.3
20260509023510 57 194 7.0 24.0 0.09 0.09 0.09 79 1010.6
20260509023028 58 197 8.0 24.0 0.08 0.08 0.08 77 1011.8
20260509022508 58 276 11.0 27.0 0.07 0.07 0.07 75 1013.0
20260509022003 59 259 14.0 27.0 0.06 0.06 0.06 72 1012.5
20260509021512 60 261 8.0 27.0 0.05 0.05 0.05 72 1012.5
20260509020508 61 256 10.0 23.0 0.01 0.01 0.01 67 1012.8
20260509020033 61 224 7.0 21.0 0.01 0.01 0.01 67 1012.6
20260509015507 62 257 10.0 21.0 0.01 0.01 0.01 67 1012.3
20260509015007 62 261 7.0 21.0 0.01 0.01 0.01 69 1012.5
20260509014521 63 253 9.0 17.0 0.01 0.01 0.01 69 1012.3
20260509014011 64 199 4.0 10.0 0.00 0.00 0.00 68 1012.7
20260509013507 64 257 2.0 8.0 0.00 0.00 0.00 65 1012.6
20260509013036 65 250 3.0 9.0 0.00 0.00 0.00 64 1012.6
20260509012510 65 211 3.0 9.0 0.00 0.00 0.00 62 1012.3
20260509012009 65 233 3.0 7.0 0.00 0.00 0.00 61 1012.0
20260509011525 65 253 3.0 5.0 0.00 0.00 0.00 60 1011.8
20260509011009 65 240 1.0 7.0 0.00 0.00 0.00 60 1011.4
20260509010504 65 244 2.0 7.0 0.00 0.00 0.00 60 1011.3
20260509010014 65 247 1.0 3.0 0.00 0.00 0.00 60 1011.1
20260509005506 66 240 0.0 3.0 0.00 0.00 0.00 61 1010.9
20260509005005 66 223 1.0 3.0 0.00 0.00 0.00 61 1010.8
20260509004522 66 217 1.0 5.0 0.00 0.00 0.00 60 1010.7
20260509004002 67 159 3.0 5.0 0.00 0.00 0.00 57 1010.6
20260509003503 68 183 1.0 2.0 0.00 0.00 0.00 55 1010.7
20260509003013 68 217 0.0 2.0 0.00 0.00 0.00 54 1010.9
20260509002504 69 228 1.0 2.0 0.00 0.00 0.00 54 1011.0
20260509002003 69 246 1.0 2.0 0.00 0.00 0.00 53 1010.7
20260509001510 69 234 0.0 3.0 0.00 0.00 0.00 53 1010.7
20260509001006 69 231 1.0 4.0 0.00 0.00 0.00 53 1010.6
20260509000503 70 257 1.0 5.0 0.00 0.00 0.00 53 1010.7
20260509000014 70 229 2.0 5.0 0.00 0.00 0.00 52 1010.5
20260508235507 70 250 2.0 6.0 0.00 0.00 0.00 51 1010.4
20260508235007 70 229 2.0 7.0 0.00 0.00 0.00 51 1010.1
20260508234519 71 181 4.0 7.0 0.00 0.00 0.00 50 1010.0
20260508234006 71 237 3.0 8.0 0.00 0.00 0.00 51 1010.0
20260508233503 71 187 4.0 8.0 0.00 0.00 0.00 49 1010.1
20260508233004 71 194 2.0 8.0 0.00 0.00 0.00 50 1010.1
20260508232502 71 174 4.0 10.0 0.00 0.00 0.00 49 1010.1
20260508232003 72 180 3.0 10.0 0.00 0.00 0.00 49 1010.1
20260508231507 72 210 4.0 9.0 0.00 0.00 0.00 49 1010.2
20260508231004 72 175 2.0 9.0 0.00 0.00 0.00 50 1010.1
20260508230504 72 183 3.0 9.0 0.00 0.00 0.00 50 1010.2
20260508230011 72 163 5.0 10.0 0.00 0.00 0.00 49 1010.1
20260508225506 72 172 3.0 10.0 0.00 0.00 0.00 50 1010.1
20260508225008 72 180 4.0 9.0 0.00 0.00 0.00 48 1010.1
20260508224523 72 225 4.0 10.0 0.00 0.00 0.00 48 1010.2
20260508224006 73 178 5.0 11.0 0.00 0.00 0.00 47 1010.2
20260508223506 73 191 4.0 11.0 0.00 0.00 0.00 48 1010.2
20260508223027 73 234 3.0 11.0 0.00 0.00 0.00 48 1010.2
20260508222502 73 186 3.0 11.0 0.00 0.00 0.00 48 1010.2
20260508222003 73 192 4.0 9.0 0.00 0.00 0.00 44 1010.1
20260508221507 74 173 5.0 9.0 0.00 0.00 0.00 44 1010.2
20260508221004 74 166 4.0 9.0 0.00 0.00 0.00 45 1010.1
20260508220504 74 184 4.0 9.0 0.00 0.00 0.00 43 1009.9
20260508220009 73 163 4.0 11.0 0.00 0.00 0.00 44 1010.1
20260508215517 74 113 3.0 14.0 0.00 0.00 0.00 43 1010.2
20260508215005 74 184 6.0 14.0 0.00 0.00 0.00 43 1010.3
20260508214525 74 225 4.0 9.0 0.00 0.00 0.00 44 1010.3
20260508214005 74 219 3.0 9.0 0.00 0.00 0.00 46 1010.3
20260508213506 74 13 5.0 12.0 0.00 0.00 0.00 42 1010.5
20260508213019 74 183 6.0 12.0 0.00 0.00 0.00 46 1010.6
20260508212508 74 232 3.0 11.0 0.00 0.00 0.00 46 1010.6
20260508212010 74 192 3.0 11.0 0.00 0.00 0.00 46 1010.5
20260508211534 73 222 6.0 12.0 0.00 0.00 0.00 45 1010.6
20260508211003 74 223 5.0 12.0 0.00 0.00 0.00 45 1010.6
20260508210503 74 148 5.0 10.0 0.00 0.00 0.00 45 1010.7
20260508210008 74 230 5.0 10.0 0.00 0.00 0.00 46 1010.9
20260508205504 73 178 3.0 10.0 0.00 0.00 0.00 46 1010.9
20260508205004 73 163 5.0 12.0 0.00 0.00 0.00 45 1011.1
20260508204512 73 213 7.0 12.0 0.00 0.00 0.00 43 1011.2
20260508204005 73 244 6.0 12.0 0.00 0.00 0.00 44 1011.1
20260508203504 74 158 2.0 11.0 0.00 0.00 0.00 50 1011.1
20260508203017 73 294 4.0 9.0 0.00 0.00 0.00 47 1011.2
20260508202508 73 224 5.0 11.0 0.00 0.00 0.00 45 1011.3
20260508202006 74 213 7.0 11.0 0.00 0.00 0.00 45 1011.4
20260508201520 73 232 5.0 11.0 0.00 0.00 0.00 45 1011.5
20260508201011 74 241 4.0 10.0 0.00 0.00 0.00 44 1011.6
20260508200508 74 178 5.0 10.0 0.00 0.00 0.00 46 1011.6
20260508200026 73 153 2.0 11.0 0.00 0.00 0.00 48 1011.7
20260508195507 73 198 4.0 11.0 0.00 0.00 0.00 46 1011.8
20260508195003 73 169 5.0 11.0 0.00 0.00 0.00 45 1011.9
20260508194524 72 253 6.0 11.0 0.00 0.00 0.00 45 1011.9
20260508194005 73 205 6.0 10.0 0.00 0.00 0.00 43 1012.0
20260508193504 73 191 4.0 13.0 0.00 0.00 0.00 46 1012.0
20260508193027 73 154 7.0 13.0 0.00 0.00 0.00 44 1012.1
20260508192511 73 190 4.0 9.0 0.00 0.00 0.00 46 1012.0
20260508192008 73 173 4.0 10.0 0.00 0.00 0.00 46 1012.1
20260508191526 72 154 6.0 10.0 0.00 0.00 0.00 50 1012.2
20260508191007 72 198 2.0 10.0 0.00 0.00 0.00 43 1012.2
20260508190511 72 169 5.0 10.0 0.00 0.00 0.00 45 1012.3
20260508190023 72 206 4.0 11.0 0.00 0.00 0.00 46 1012.2
20260508185508 72 191 5.0 12.0 0.00 0.00 0.00 45 1012.4
20260508185012 72 205 7.0 13.0 0.00 0.00 0.00 46 1012.5
20260508184509 72 213 4.0 13.0 0.00 0.00 0.00 48 1012.6
20260508184003 72 242 5.0 13.0 0.00 0.00 0.00 43 1012.7
20260508183503 71 196 6.0 12.0 0.00 0.00 0.00 46 1012.7
20260508183022 71 162 5.0 11.0 0.00 0.00 0.00 47 1012.7
20260508182507 71 167 5.0 12.0 0.00 0.00 0.00 48 1012.8
20260508182007 71 243 5.0 12.0 0.00 0.00 0.00 43 1012.9
20260508181536 71 180 6.0 12.0 0.00 0.00 0.00 44 1013.0
20260508181010 70 229 5.0 13.0 0.00 0.00 0.00 46 1013.2
20260508180509 70 218 5.0 13.0 0.00 0.00 0.00 47 1013.2
20260508180024 70 196 3.0 9.0 0.00 0.00 0.00 45 1013.3
20260508175507 70 287 3.0 10.0 0.00 0.00 0.00 50 1013.4
20260508175017 70 226 6.0 10.0 0.00 0.00 0.00 46 1013.5
20260508174526 70 179 6.0 10.0 0.00 0.00 0.00 46 1013.5
20260508174008 70 252 3.0 10.0 0.00 0.00 0.00 49 1013.6
20260508173511 69 217 5.0 11.0 0.00 0.00 0.00 51 1013.6
20260508173010 69 195 6.0 12.0 0.00 0.00 0.00 51 1013.8
20260508172503 69 225 6.0 12.0 0.00 0.00 0.00 49 1013.8
20260508172008 69 265 4.0 14.0 0.00 0.00 0.00 51 1013.9
20260508171518 69 184 4.0 14.0 0.00 0.00 0.00 52 1014.0
20260508171005 69 219 4.0 11.0 0.00 0.00 0.00 54 1014.0
20260508170507 69 161 5.0 10.0 0.00 0.00 0.00 53 1014.0
20260508170020 68 185 3.0 9.0 0.00 0.00 0.00 58 1014.0
20260508165507 68 221 3.0 10.0 0.00 0.00 0.00 53 1014.2
20260508165006 68 209 6.0 11.0 0.00 0.00 0.00 55 1014.4
20260508164527 68 186 4.0 11.0 0.00 0.00 0.00 55 1014.4
20260508164012 67 175 4.0 10.0 0.00 0.00 0.00 58 1014.4
20260508163509 67 253 5.0 11.0 0.00 0.00 0.00 59 1014.5
20260508163027 67 235 5.0 12.0 0.00 0.00 0.00 56 1014.5
20260508162510 67 192 6.0 12.0 0.00 0.00 0.00 57 1014.6
20260508162013 66 275 3.0 13.0 0.00 0.00 0.00 60 1014.5
20260508161516 66 163 6.0 14.0 0.00 0.00 0.00 58 1014.5
20260508161005 66 200 7.0 14.0 0.00 0.00 0.00 59 1014.6
20260508160506 66 190 7.0 12.0 0.00 0.00 0.00 60 1014.5
20260508160019 66 180 6.0 14.0 0.00 0.00 0.00 61 1014.6
20260508155507 65 276 4.0 14.0 0.00 0.00 0.00 64 1014.6
20260508155007 65 211 6.0 11.0 0.00 0.00 0.00 65 1014.7
20260508154541 64 137 4.0 14.0 0.00 0.00 0.00 65 1014.7
20260508154003 64 202 5.0 14.0 0.00 0.00 0.00 64 1014.7
20260508153503 64 161 5.0 12.0 0.00 0.00 0.00 63 1014.9
20260508153004 63 179 6.0 13.0 0.00 0.00 0.00 64 1015.0
20260508152504 63 185 7.0 13.0 0.00 0.00 0.00 65 1015.0
20260508152003 63 227 6.0 19.0 0.00 0.00 0.00 67 1015.0
20260508151508 62 197 6.0 19.0 0.00 0.00 0.00 67 1015.0
20260508151002 62 192 6.0 18.0 0.00 0.00 0.00 66 1015.0
20260508150504 62 221 6.0 18.0 0.00 0.00 0.00 68 1015.1
20260508150004 62 234 7.0 15.0 0.00 0.00 0.00 67 1015.1
20260508145503 62 209 6.0 14.0 0.00 0.00 0.00 67 1015.2
20260508145002 61 170 6.0 14.0 0.00 0.00 0.00 69 1015.2
20260508144504 61 207 6.0 14.0 0.00 0.00 0.00 69 1015.2
20260508144006 61 211 6.0 13.0 0.00 0.00 0.00 69 1015.2
20260508143505 60 151 7.0 15.0 0.00 0.00 0.00 70 1015.1
20260508143003 60 218 6.0 15.0 0.00 0.00 0.00 71 1015.1
20260508142503 60 175 4.0 14.0 0.00 0.00 0.00 72 1015.1
20260508142003 59 207 6.0 14.0 0.00 0.00 0.00 71 1015.2
20260508141504 59 213 7.0 18.0 0.00 0.00 0.00 71 1015.1
20260508141003 59 248 9.0 18.0 0.00 0.00 0.00 71 1015.1
20260508140503 59 252 4.0 14.0 0.00 0.00 0.00 73 1015.2
20260508140007 58 207 5.0 16.0 0.00 0.00 0.00 74 1015.2
20260508135506 58 205 6.0 16.0 0.00 0.00 0.00 74 1015.3
20260508135007 57 197 5.0 13.0 0.00 0.00 0.00 74 1015.3
20260508134508 57 195 5.0 13.0 0.00 0.00 0.00 75 1015.3
20260508134004 57 238 6.0 11.0 0.00 0.00 0.00 75 1015.3
20260508133503 56 201 6.0 12.0 0.00 0.00 0.00 76 1015.3
20260508133008 56 204 5.0 12.0 0.00 0.00 0.00 76 1015.3
20260508132504 56 204 5.0 12.0 0.00 0.00 0.00 76 1015.4
20260508132004 56 191 5.0 12.0 0.00 0.00 0.00 76 1015.4
20260508131508 55 211 3.0 10.0 0.00 0.00 0.00 78 1015.4
20260508131004 55 181 6.0 11.0 0.00 0.00 0.00 77 1015.5
20260508130504 55 250 6.0 13.0 0.00 0.00 0.00 78 1015.4
20260508130011 54 188 5.0 13.0 0.00 0.00 0.00 78 1015.4
20260508125504 54 222 5.0 13.0 0.00 0.00 0.00 78 1015.4
20260508125004 54 254 7.0 11.0 0.00 0.00 0.00 78 1015.3
20260508124508 53 210 5.0 12.0 0.00 0.00 0.00 78 1015.3
20260508124004 53 229 5.0 12.0 0.00 0.00 0.00 78 1015.3
20260508123506 53 205 4.0 10.0 0.00 0.00 0.00 78 1015.3
20260508123015 53 234 5.0 14.0 0.00 0.00 0.00 78 1015.3
20260508122504 52 217 6.0 14.0 0.00 0.00 0.00 78 1015.2
20260508122004 52 195 6.0 11.0 0.00 0.00 0.00 78 1015.2
20260508121513 52 211 4.0 10.0 0.00 0.00 0.00 77 1015.1
20260508121003 52 187 4.0 10.0 0.00 0.00 0.00 77 1015.1
20260508120503 51 219 4.0 9.0 0.00 0.00 0.00 77 1015.1
20260508120010 51 185 4.0 9.0 0.00 0.00 0.00 76 1015.0
20260508115504 51 198 5.0 8.0 0.00 0.00 0.00 76 1014.9
20260508115003 51 191 4.0 9.0 0.00 0.00 0.00 75 1015.0
20260508114508 51 178 4.0 9.0 0.00 0.00 0.00 75 1015.0
20260508114004 51 166 3.0 8.0 0.00 0.00 0.00 75 1015.0
20260508113504 50 259 5.0 9.0 0.00 0.00 0.00 75 1014.9